Torna al catalogo

N-1 R/B

AttivoLEO
NORAD 10675·ROCKET BODY·🇯🇵 Japan

Lanciato Feb 16, 1978 da Tanegashima Space Center

Loading…

Prossimi Passaggi (prossime 24 ore)

TLE

AggiornatoSource: Space-Track

Epoca: Sep 14, 2026, 07:48 UTC

1 10675U 78018B   26257.32535554  .00000041  00000-0  14505-3 0  9990
2 10675  69.3621  19.8690 0161688 350.4564  28.3481 13.44897665384002

Traccia N-1 R/B in tempo reale con AllMySat

Download on the App Store